Location: Marysville Observatory
(48.1092°N, 122.1645°W)
Time: 00:37:02
(UTC-07:00)

Amateur Radio Satellites - All Passes

Search period start: 01 November 2014 00:07
Search period end: 02 November 2014 00:07
Location: Marysville Observatory, 48.1092°N, 122.1645°W

Satellite Date Start Highest point End Downlink Frequencies (MHz)
Time Altitude Azimuth
JAS-1B 01 Nov 01:07:39 01:11:56 16° 87° (E) 01:16:36 435.800 - 435.900 CW/SSB
Oscar 19 01 Nov 01:15:15 01:16:20 11° 85° (E) 01:17:25 437.125 CW, 437.150 USB
RS-15 01 Nov 01:26:17 01:36:02 35° 348° (NNW) 01:45:59 29.354 - 29.394 USB, Beacon 29.352 USB
Oscar 16 01 Nov 01:59:49 02:04:12 28° 94° (E) 02:08:34 437.025 USB, Beacon 2401.1428
Sapphire 01 Nov 02:17:00 02:21:49 34° 112° (ESE) 02:26:40 437.095 MHz 1200 baud AX-25 AFSK
AO-Echo 01 Nov 02:29:28 02:34:07 30° 94° (E) 02:38:42 ?
Uribyol 2 01 Nov 02:34:03 02:38:20 25° 93° (E) 02:42:33 436.500 FM
PCSat 01 Nov 02:38:02 02:43:16 53° 117° (ESE) 02:48:33 145.825 MHz
ITAMSAT 1 01 Nov 02:42:04 02:46:32 28° 94° (E) 02:50:57 435.822 SSB
Oscar 19 01 Nov 02:51:25 02:56:34 76° 103° (ESE) 03:01:41 437.125 CW, 437.150 USB
JAS-1B 01 Nov 02:56:22 03:03:23 76° 104° (ESE) 03:11:48 435.800 - 435.900 CW/SSB
AO-27 01 Nov 03:29:27 03:34:42 70° 103° (ESE) 03:39:54 436.795 MHz FM
Oscar 16 01 Nov 03:38:52 03:43:44 44° 293° (WNW) 03:48:34 437.025 USB, Beacon 2401.1428
RS-15 01 Nov 03:41:54 03:52:04 40° 22° (NNE) 04:02:31 29.354 - 29.394 USB, Beacon 29.352 USB
Gurwin Techsat 1B 01 Nov 03:48:52 03:54:08 59° 101° (E) 03:59:22 435.225 FM
TMSAT-1 01 Nov 03:54:48 03:59:59 50° 99° (E) 04:05:07 436.925 FM
Sapphire 01 Nov 03:59:54 04:05:06 47° 312° (NW) 04:10:22 437.095 MHz 1200 baud AX-25 AFSK
OPAL 01 Nov 04:03:30 04:07:18 22° 57° (ENE) 04:11:04 ?
AO-Echo 01 Nov 04:07:58 04:13:02 45° 292° (WNW) 04:18:02 ?
Uribyol 2 01 Nov 04:13:02 04:18:04 50° 292° (WNW) 04:23:04 436.500 FM
ITAMSAT 1 01 Nov 04:21:14 04:26:13 46° 293° (WNW) 04:31:10 435.822 SSB
PCSat 01 Nov 04:22:03 04:26:57 33° 318° (NW) 04:31:52 145.825 MHz
Uosat F 01 Nov 04:22:53 04:25:31 14° 88° (E) 04:28:08 435.120 FM
Oscar 19 01 Nov 04:31:54 04:35:21 19° 302° (WNW) 04:38:47 437.125 CW, 437.150 USB
JAS-2 01 Nov 04:35:06 04:37:02 11° 77° (ENE) 04:38:58 435.800 - 435.900 CW/SSB, 435.910 FM
AO-7 01 Nov 04:44:49 04:52:22 36° 96° (E) 04:59:53 29.400 - 29.500 MHz
JAS-1B 01 Nov 04:47:58 04:53:34 28° 301° (WNW) 04:59:58 435.800 - 435.900 CW/SSB
AO-27 01 Nov 05:09:57 05:13:42 20° 302° (WNW) 05:17:27 436.795 MHz FM
Gurwin Techsat 1B 01 Nov 05:29:33 05:33:44 24° 300° (WNW) 05:37:55 435.225 FM
Saudisat 1A 01 Nov 05:34:21 05:37:54 25° 115° (ESE) 05:41:30 436.775 MHz
TMSAT-1 01 Nov 05:35:13 05:39:39 27° 298° (WNW) 05:44:03 436.925 FM
OPAL 01 Nov 05:40:42 05:45:46 64° 255° (WSW) 05:50:47 ?
Sapphire 01 Nov 05:46:47 05:49:56 15° 336° (NNW) 05:53:04 437.095 MHz 1200 baud AX-25 AFSK
RS-15 01 Nov 05:54:59 06:06:10 84° 51° (NE) 06:17:49 29.354 - 29.394 USB, Beacon 29.352 USB
Uosat F 01 Nov 05:59:53 06:04:59 85° 286° (WNW) 06:10:01 435.120 FM
STRAND 1 01 Nov 06:00:21 06:04:43 29° 63° (ENE) 06:09:07 ?
PCSat 01 Nov 06:09:46 06:12:06 13° 342° (NNW) 06:14:27 145.825 MHz
JAS-2 01 Nov 06:16:08 06:23:50 54° 98° (E) 06:31:17 435.800 - 435.900 CW/SSB, 435.910 FM
AO-7 01 Nov 06:37:25 06:45:34 62° 297° (WNW) 06:53:44 29.400 - 29.500 MHz
Hamsat 01 Nov 06:38:10 06:42:12 42° 98° (E) 06:46:14 145.90 MHz
Saudisat 1A 01 Nov 07:12:57 07:17:13 50° 315° (NW) 07:21:32 436.775 MHz
MaSat-1 01 Nov 07:38:01 07:40:33 69° 243° (WSW) 07:42:55 437.345 MHz
STRAND 1 01 Nov 07:38:49 07:43:44 45° 261° (W) 07:48:41 ?
Uosat F 01 Nov 07:40:17 07:43:01 15° 305° (NW) 07:45:43 435.120 FM
PCSat 01 Nov 07:56:57 07:58:09 11° 9° (N) 07:59:21 145.825 MHz
JAS-2 01 Nov 08:01:24 08:08:38 42° 298° (WNW) 08:15:45 435.800 - 435.900 CW/SSB, 435.910 FM
RS-15 01 Nov 08:08:07 08:17:27 33° 254° (WSW) 08:27:08 29.354 - 29.394 USB, Beacon 29.352 USB
Hamsat 01 Nov 08:14:39 08:17:55 22° 296° (WNW) 08:21:12 145.90 MHz
SO-67 01 Nov 08:25:42 08:29:10 87° 284° (WNW) 08:32:37 435.3500 MHz FM
AO-7 01 Nov 08:31:31 08:36:48 19° 320° (NW) 08:42:06 29.400 - 29.500 MHz
Saudisat 1A 01 Nov 08:55:18 08:57:48 15° 337° (NNW) 09:00:19 436.775 MHz
Sapphire 01 Nov 09:18:00 09:21:41 18° 29° (NNE) 09:25:21 437.095 MHz 1200 baud AX-25 AFSK
PCSat 01 Nov 09:39:24 09:43:42 23° 35° (NE) 09:47:59 145.825 MHz
JAS-2 01 Nov 09:49:00 09:51:41 12° 319° (NW) 09:54:23 435.800 - 435.900 CW/SSB, 435.910 FM
KITSAT 1 01 Nov 09:53:14 09:58:56 22° 103° (ESE) 10:04:38 435.175 FM
HO-68 01 Nov 09:54:40 10:01:41 51° 100° (E) 10:08:37 435.675 MHz FM
ISS 01 Nov 09:59:11 10:01:34 18° 138° (SE) 10:03:57 145.800 FM
UKube-1 01 Nov 10:24:53 10:28:52 33° 97° (E) 10:32:47 145.840 MHz, 145.915 MHz
ZACube-1 01 Nov 10:36:25 10:39:29 19° 92° (E) 10:42:30 437.345 MHz
Oscar 11 01 Nov 10:58:44 11:03:04 73° 102° (ESE) 11:07:22 145.825 FM, Beacon 2401.500 USB
Sapphire 01 Nov 11:00:49 11:06:14 62° 52° (NE) 11:11:36 437.095 MHz 1200 baud AX-25 AFSK
SO-50 01 Nov 11:16:49 11:21:02 41° 119° (ESE) 11:25:24 436.795 FM
FUNcube-1 01 Nov 11:18:18 11:22:25 51° 100° (E) 11:26:27 145.950 - 145.970 MHz USB
PCSat 01 Nov 11:22:23 11:27:52 89° 237° (WSW) 11:33:17 145.825 MHz
ISS 01 Nov 11:34:33 11:37:53 88° 156° (SSE) 11:41:14 145.800 FM
HO-68 01 Nov 11:42:41 11:49:14 40° 300° (WNW) 11:55:45 435.675 MHz FM
KITSAT 1 01 Nov 11:45:09 11:53:14 86° 124° (ESE) 12:01:22 435.175 FM
Oscar 16 01 Nov 11:45:53 11:46:50 11° 51° (NE) 11:47:47 437.025 USB, Beacon 2401.1428
UOSAT-12 01 Nov 11:57:32 11:59:23 12° 108° (ESE) 12:01:14 437.025 FM, 437.400 FM
JAS-1B 01 Nov 11:59:47 12:03:01 16° 50° (NE) 12:06:21 435.800 - 435.900 CW/SSB
UKube-1 01 Nov 12:01:11 12:04:59 29° 295° (WNW) 12:08:45 145.840 MHz, 145.915 MHz
ZACube-1 01 Nov 12:12:07 12:16:08 44° 290° (WNW) 12:20:05 437.345 MHz
Saudisat 1A 01 Nov 12:17:56 12:20:44 16° 26° (NNE) 12:23:32 436.775 MHz
Uribyol 2 01 Nov 12:21:46 12:21:53 10° 49° (NE) 12:22:00 436.500 FM
ITAMSAT 1 01 Nov 12:28:38 12:30:03 11° 50° (NE) 12:31:28 435.822 SSB
Oscar 19 01 Nov 12:34:03 12:38:09 25° 61° (ENE) 12:42:14 437.125 CW, 437.150 USB
Oscar 11 01 Nov 12:36:19 12:38:43 15° 301° (WNW) 12:41:06 145.825 FM, Beacon 2401.500 USB
Sapphire 01 Nov 12:44:55 12:49:15 25° 251° (WSW) 12:53:34 437.095 MHz 1200 baud AX-25 AFSK
FUNcube-1 01 Nov 12:55:32 12:58:27 19° 298° (WNW) 13:01:20 145.950 - 145.970 MHz USB
SO-50 01 Nov 12:57:27 13:01:40 35° 320° (NW) 13:06:01 436.795 FM
PCSat 01 Nov 13:07:24 13:10:30 16° 256° (WSW) 13:13:36 145.825 MHz
ISS 01 Nov 13:11:34 13:14:47 44° 356° (N) 13:18:01 145.800 FM
AO-27 01 Nov 13:13:13 13:17:23 25° 60° (ENE) 13:21:34 436.795 MHz FM
Oscar 16 01 Nov 13:20:07 13:25:09 58° 70° (ENE) 13:30:12 437.025 USB, Beacon 2401.1428
HO-68 01 Nov 13:33:39 13:35:01 11° 323° (NW) 13:36:24 435.675 MHz FM
UOSAT-12 01 Nov 13:34:04 13:38:44 81° 126° (SE) 13:43:29 437.025 FM, 437.400 FM
Gurwin Techsat 1B 01 Nov 13:35:33 13:39:30 22° 59° (ENE) 13:43:29 435.225 FM
TMSAT-1 01 Nov 13:41:34 13:45:11 19° 57° (ENE) 13:48:49 436.925 FM
KITSAT 1 01 Nov 13:42:20 13:49:35 35° 328° (NNW) 13:56:52 435.175 FM
AO-Echo 01 Nov 13:45:39 13:50:32 52° 69° (ENE) 13:55:36 ?
JAS-1B 01 Nov 13:47:06 13:52:47 85° 73° (ENE) 13:58:40 435.800 - 435.900 CW/SSB
Uribyol 2 01 Nov 13:55:10 14:00:14 54° 69° (ENE) 14:05:21 436.500 FM
Saudisat 1A 01 Nov 13:56:47 14:01:11 60° 48° (NE) 14:05:34 436.775 MHz
AO-7 01 Nov 13:58:47 14:04:17 20° 42° (NE) 14:09:47 29.400 - 29.500 MHz
ITAMSAT 1 01 Nov 14:03:23 14:08:30 60° 70° (ENE) 14:13:40 435.822 SSB
Oscar 19 01 Nov 14:12:09 14:17:10 54° 260° (W) 14:22:13 437.125 CW, 437.150 USB
SO-50 01 Nov 14:41:19 14:43:36 13° 344° (NNW) 14:45:56 436.795 FM
ISS 01 Nov 14:48:29 14:51:48 62° 16° (NNE) 14:55:07 145.800 FM
AO-27 01 Nov 14:51:26 14:56:33 56° 259° (W) 15:01:43 436.795 MHz FM
Oscar 16 01 Nov 15:01:00 15:04:53 21° 269° (W) 15:08:47 437.025 USB, Beacon 2401.1428
Gurwin Techsat 1B 01 Nov 15:13:44 15:19:01 66° 258° (WSW) 15:24:20 435.225 FM
UOSAT-12 01 Nov 15:15:39 15:19:27 24° 328° (NNW) 15:23:17 437.025 FM, 437.400 FM
TMSAT-1 01 Nov 15:19:12 15:24:31 78° 256° (WSW) 15:29:52 436.925 FM
AO-Echo 01 Nov 15:25:34 15:29:37 24° 269° (W) 15:33:47 ?
Uribyol 2 01 Nov 15:35:52 15:40:02 24° 268° (W) 15:44:13 436.500 FM
Saudisat 1A 01 Nov 15:37:07 15:40:23 20° 246° (WSW) 15:43:38 436.775 MHz
Uosat F 01 Nov 15:38:55 15:43:15 30° 63° (ENE) 15:47:36 435.120 FM
JAS-1B 01 Nov 15:41:35 15:44:29 14° 274° (W) 15:47:25 435.800 - 435.900 CW/SSB
KITSAT 1 01 Nov 15:41:46 15:47:44 22° 357° (N) 15:53:42 435.175 FM
ITAMSAT 1 01 Nov 15:44:27 15:48:24 22° 269° (W) 15:52:23 435.822 SSB
AO-7 01 Nov 15:47:28 15:55:37 66° 64° (ENE) 16:03:48 29.400 - 29.500 MHz
SO-50 01 Nov 16:24:39 16:26:15 12° 9° (N) 16:27:52 436.795 FM
ISS 01 Nov 16:25:19 16:28:23 34° 215° (SW) 16:31:26 145.800 FM
JAS-2 01 Nov 16:32:07 16:38:00 35° 59° (ENE) 16:44:29 435.800 - 435.900 CW/SSB, 435.910 FM
Oscar 10/S400 01 Nov 16:58:37 17:17:43 46° 171° (S) 18:41:31 145.825 - 145.975 CW/USB, Beacon 145.810 USB
UOSAT-12 01 Nov 16:59:46 17:01:18 11° 352° (N) 17:02:50 437.025 FM, 437.400 FM
TMSAT-1 01 Nov 17:03:35 17:05:19 12° 275° (W) 17:07:05 436.925 FM
Uosat F 01 Nov 17:17:07 17:21:53 42° 262° (W) 17:26:42 435.120 FM
Hamsat 01 Nov 17:34:47 17:38:47 46° 71° (ENE) 17:42:48 145.90 MHz
KITSAT 1 01 Nov 17:39:07 17:46:05 30° 27° (NNE) 17:53:01 435.175 FM
AO-7 01 Nov 17:41:41 17:48:56 33° 265° (W) 17:56:16 29.400 - 29.500 MHz
OPAL 01 Nov 17:47:30 17:51:28 24° 95° (E) 17:55:24 ?
SO-50 01 Nov 18:04:36 18:08:31 24° 33° (NNE) 18:12:29 436.795 FM
JAS-2 01 Nov 18:16:20 18:22:41 57° 262° (W) 18:29:53 435.800 - 435.900 CW/SSB, 435.910 FM
UOSAT-12 01 Nov 18:41:12 18:43:31 13° 17° (NNE) 18:45:51 437.025 FM, 437.400 FM
HO-68 01 Nov 18:43:44 18:47:24 15° 43° (NE) 18:51:04 435.675 MHz FM
SO-67 01 Nov 19:01:21 19:04:41 50° 73° (ENE) 19:08:03 435.3500 MHz FM
Hamsat 01 Nov 19:12:02 19:14:59 19° 269° (W) 19:17:57 145.90 MHz
OPAL 01 Nov 19:25:50 19:30:38 50° 294° (WNW) 19:35:24 ?
KITSAT 1 01 Nov 19:34:41 19:42:49 78° 52° (NE) 19:50:54 435.175 FM
SO-50 01 Nov 19:44:47 19:49:38 82° 233° (SW) 19:54:32 436.795 FM
STRAND 1 01 Nov 19:45:31 19:50:30 47° 99° (E) 19:55:26 ?
JAS-2 01 Nov 20:09:00 20:09:36 10° 284° (WNW) 20:10:11 435.800 - 435.900 CW/SSB, 435.910 FM
UOSAT-12 01 Nov 20:20:40 20:25:03 35° 40° (NE) 20:29:22 437.025 FM, 437.400 FM
Oscar 11 01 Nov 20:24:07 20:25:48 12° 57° (ENE) 20:27:28 145.825 FM, Beacon 2401.500 USB
RS-15 01 Nov 20:24:15 20:33:39 35° 107° (ESE) 20:43:00 29.354 - 29.394 USB, Beacon 29.352 USB
HO-68 01 Nov 20:26:41 20:33:38 56° 65° (ENE) 20:40:37 435.675 MHz FM
SO-67 01 Nov 20:36:35 20:37:58 12° 271° (W) 20:39:20 435.3500 MHz FM
MaSat-1 01 Nov 21:17:38 21:19:03 12° 107° (ESE) 21:20:25 437.345 MHz
UKube-1 01 Nov 21:23:31 21:27:40 45° 69° (ENE) 21:31:52 145.840 MHz, 145.915 MHz
STRAND 1 01 Nov 21:25:08 21:29:28 28° 298° (WNW) 21:33:47 ?
SO-50 01 Nov 21:27:15 21:29:28 13° 252° (WSW) 21:31:42 436.795 FM
KITSAT 1 01 Nov 21:30:53 21:37:29 29° 253° (WSW) 21:44:05 435.175 FM
ZACube-1 01 Nov 21:35:59 21:39:45 27° 66° (ENE) 21:43:28 437.345 MHz
Oscar 11 01 Nov 21:56:59 22:01:18 89° 78° (ENE) 22:05:39 145.825 FM, Beacon 2401.500 USB
UOSAT-12 01 Nov 22:00:50 22:05:19 43° 240° (WSW) 22:09:43 437.025 FM, 437.400 FM
HO-68 01 Nov 22:15:12 22:21:38 35° 265° (W) 22:28:07 435.675 MHz FM
FUNcube-1 01 Nov 22:17:37 22:22:05 66° 73° (ENE) 22:26:27 145.950 - 145.970 MHz USB
RS-15 01 Nov 22:34:03 22:45:01 78° 311° (NW) 22:56:05 29.354 - 29.394 USB, Beacon 29.352 USB
MaSat-1 01 Nov 22:50:22 22:54:04 64° 301° (WNW) 22:57:23 437.345 MHz
UKube-1 01 Nov 23:00:46 23:04:05 21° 267° (W) 23:07:25 145.840 MHz, 145.915 MHz
ZACube-1 01 Nov 23:11:51 23:16:02 37° 263° (W) 23:20:09 437.345 MHz
Oscar 11 01 Nov 23:37:22 23:38:08 10° 274° (W) 23:38:53 145.825 FM, Beacon 2401.500 USB
FUNcube-1 01 Nov 23:56:15 23:58:52 15° 271° (W) 00:01:28 145.950 - 145.970 MHz USB
